Regional Weather Roundup
Issued by NWS

Home | Current Version | Previous Version | Graphics & Text | Print | Product List | Glossary On
Versions: 1 2 3 4 5 6 7 8 9 10 11 12 13 14 15 16 17 18 19 20 21 22 23 24 25 26 27
000
ASUS45 KTFX 260910
RWRMT
MONTANA REGIONAL WEATHER ROUNDUP
NATIONAL WEATHER SERVICE GREAT FALLS MT
300 AM MDT FRI AUG 26 2016

NOTE: "FAIR" INDICATES FEW OR NO CLOUDS BELOW 12000 FEET WITH NO
SIGNIFICANT WEATHER AND/OR OBSTRUCTIONS TO VISIBILITY.

MTZ001>007-043-261000-
WEST OF THE DIVIDE

CITY           SKY/WX    TMP DP  RH WIND       PRES   REMARKS
KALISPELL        N/A     57  43  59 N15       30.12F
MISSOULA         N/A     50  34  54 NW5       30.13S
BUTTE            N/A     43  30  60 SE7       30.20F
MULLAN PASS      N/A     51  27  39 SE5       30.19F
DEER LODGE       N/A     48  37  66 W7        30.21F
EUREKA           N/A     52  45  76 CALM      30.16F
HAMILTON         N/A     46  34  61 CALM      30.12S
LIBBY            N/A     54  39  58 SE3       30.13F
PLAINS           N/A     46  35  65 CALM      30.11S
RONAN            N/A     53  43  69 MISG      30.16S
$$

MTZ008-052>055-261000-
SOUTHWEST MONTANA

CITY           SKY/WX    TMP DP  RH WIND       PRES   REMARKS
BOZEMAN          N/A     43  35  73 S5        30.18S
DILLON         CLOUDY    50  32  50 CALM      30.16F
W YELLOWSTONE  CLOUDY    46  27  46 CALM      30.23S
ENNIS          CLOUDY    52  30  43 SE6       30.23S
THREE FORKS      N/A     43  32  65 CALM      30.14F
TWIN BRIDGES     N/A     54  29  38 N12       30.13F
$$

MTZ009-010-012-014-046-048-049-054-261000-
EAST SLOPES AND CENTRAL MONTANA

CITY           SKY/WX    TMP DP  RH WIND       PRES   REMARKS
CUT BANK         N/A     45  43  93 NW9       30.18F
GREAT FALLS    CLOUDY    53  44  71 W6        30.19F
MALMSTROM AFB  MOCLDY    55  45  70 MISG      30.18F
HELENA           N/A     55  41  59 W7        30.17F
CHOTEAU          N/A     52  45  76 SW3       30.21S
CONRAD           N/A     52  49  89 W6        30.18F
$$

MTZ011-013-016-021-045-047-050-051-261000-
NORTH CENTRAL MONTANA

CITY           SKY/WX    TMP DP  RH WIND       PRES   REMARKS
HAVRE          MOCLDY    52  50  93 SW6       30.13F
LEWISTOWN        N/A     47  37  68 S5        30.16F
N BAR RANCH      N/A     45  36  70 NW6       30.18F
CHINOOK          N/A     55  52  88 W5        30.12F
$$

MTZ017>020-022>027-061-062-261000-
NORTHEAST MONTANA

CITY           SKY/WX    TMP DP  RH WIND       PRES   REMARKS
GLASGOW          N/A     54  46  74 NW8       30.07F
JORDAN           N/A     52  40  63 W3        30.10F
SIDNEY           N/A     46  39  76 CALM      30.10S
WOLF POINT     CLOUDY    57  44  62 CALM      30.07F
POPLAR           N/A     57  43  58 CALM      30.07F
SCOBEY           N/A     49  42  76 CALM      30.06F
$$

MTZ028>42-056>058-261000-
SOUTHCENTRAL AND SOUTHEAST MONTANA

CITY           SKY/WX    TMP DP  RH WIND       PRES   REMARKS
BAKER          MOCLDY    47  39  74 E6        30.14F
BILLINGS       MOCLDY    54  40  59 NW5       30.12F
LIVINGSTON       N/A     46  36  68 CALM      30.18S
MILES CITY     MOCLDY    57  36  45 SE5       30.11S
EKALAKA          N/A     52  38  58 SE9       30.11
FORSYTH          N/A     55  39  54 CALM      30.10F
LAUREL           N/A     54  37  52 NW1       30.10F
ROUNDUP          N/A     56  38  50 NW3       30.04S
$$

REGIONAL REPORTS...DAKOTAS

CITY           SKY/WX    TMP DP  RH WIND       PRES   REMARKS
WILLISTON        N/A     47  38  71 CALM      30.08S
MINOT          CLOUDY    58  46  64 SW9       30.05S
DICKINSON        N/A     46  38  73 S6        30.12S
CROSBY         MOCLDY    55  50  82 SW5       30.07F
WATFORD CITY     N/A     46  37  71 SW6       30.10S
BISMARCK         N/A     45  43  93 CALM      30.14S
GRAND FORKS      N/A     48  45  89 SW7       30.06S
FARGO            N/A     54  49  83 SW9       30.10S
BUFFALO SD       N/A     49  40  71 S8        30.10F
RAPID CITY     LGT RAIN  51  50  96 SE8       30.17F
$$

REGIONAL REPORTS...WYOMING/IDAHO/WASHINGTON

CITY           SKY/WX    TMP DP  RH WIND       PRES   REMARKS
GILLETTE         N/A     55  47  74 S13       30.14F
SHERIDAN         N/A     49  43  80 S3        30.11F
BUFFALO WY       N/A     52  42  69 S6        30.14F
CODY             N/A     52  43  71 S3        30.16F
YELLOWSTONE LA   N/A     44  36  73 CALM      30.29S
IDAHO FALLS      N/A     50  35  56 NE8       30.09R
SALMON           N/A     55  32  41 CALM      30.09R
BOISE            N/A     60  32  34 S3        29.96F
SPOKANE        CLOUDY    67  39  35 NE5       30.03S
$$

REGIONAL REPORTS...ALBERTA

CITY           SKY/WX    TMP DP  RH WIND       PRES   REMARKS
EDMONTON       PTCLDY    48  48 100 W6        30.08F
CALGARY        MOCLDY    52  45  76 NW7       30.16S
LETHBRIDGE     CLOUDY    48  46  93 W5        30.16F
MEDICINE HAT   PTCLDY    50  50 100 W6        30.10F
WATERTON GATE    N/A     43  41  93 SW7         N/A
MILK RIVER       N/A     46  43  87 W9          N/A
$$

REGIONAL REPORTS...SASKATCHEWAN

CITY           SKY/WX    TMP DP  RH WIND       PRES   REMARKS
SWIFT CURRENT  CLOUDY    52  50  93 W12       30.03F
REGINA         MOCLDY    50  48  93 SW7       30.01F
SASKATOON      CLOUDY    54  54 100 NW6       29.97F
VAL MARIE        N/A     52  46  82 W3          N/A
ROCKGLEN         N/A     50  46  87 W5          N/A
ASSINIBOIA       N/A     50  48  93 W5          N/A
$$




USA.gov is the U.S. government's official web portal to all federal, state and local government web resources and services.